sat.trackr.live / text

‹ back to catalog

STARLINK-30515

NORAD 57983 · 2023-151V

PAYLOAD ACTIVE UNKNOWN

§ Identity

Operator
Country
US
Launch date
2023-09-30
Launch site
AFETR
Launch vehicle
Mass (kg)
RCS (m²)

Purposes: comms

External: N2YO · Heavens-Above · Gunter

§ Orbital elements

Epoch: 2026-09-19T07:04:59.513664Z

Period
94.27 min
Inclination
43.0051°
Eccentricity
0.0001443
Mean motion
15.27547953 rev/d
Perigee alt
482.2 km
Apogee alt
484.1 km
Semi-major
6,861.3 km
B*
4.0487e-4
RAAN
340.6364°
Arg perigee
253.5381°
Mean anomaly
106.5312°
Rev number
16,515

§ Raw data

STARLINK-305151 57983U 23151V   26262.29513326  .00010885  00000+0  40487-3 0  99902 57983  43.0051 340.6364 0001443 253.5381 106.5312 15.27547953165156

JSON: /api/v1/satellites/57983 · /tle

For live sub-satellite position, see the globe view (requires WebGL).

§ Visibility from observer

Set your observer location to see the next 7 days of passes ≥ 10°. The values pass through the URL so the page stays shareable.

No JS? Fill the form by hand. The geolocation button needs JavaScript.